�v������,�v���f�[�^(L),����(MJ),�����t���O
2004/1/1 0:00,0,0,0
2004/1/1 0:15,0,0,0
2004/1/1 0:30,0,0,0
2004/1/1 0:45,0,0,0
2004/1/1 1:00,0,0,0
2004/1/1 1:15,7.560321808,0.282000005,0
2004/1/1 1:30,28.55227661,1.064999967,0
2004/1/1 1:45,27.42627144,1.022999972,0
2004/1/1 2:00,0,0,0
2004/1/1 2:15,0,0,0
2004/1/1 2:30,0,0,0
2004/1/1 2:45,0,0,0
2004/1/1 3:00,0,0,0
2004/1/1 3:15,0,0,0
2004/1/1 3:30,0,0,0
2004/1/1 3:45,0,0,0
2004/1/1 4:00,0,0,0
2004/1/1 4:15,0,0,0
2004/1/1 4:30,0,0,0
2004/1/1 4:45,0,0,0
2004/1/1 5:00,0,0,0
2004/1/1 5:15,0,0,0
2004/1/1 5:30,0,0,0
2004/1/1 5:45,0,0,0
2004/1/1 6:00,0,0,0
2004/1/1 6:15,0,0,0
2004/1/1 6:30,0,0,0
2004/1/1 6:45,0,0,0
2004/1/1 7:00,0,0,0
2004/1/1 7:15,0,0,0
2004/1/1 7:30,8.016085625,0.298999995,0
2004/1/1 7:45,28.55227661,1.064999967,0
2004/1/1 8:00,28.55227661,1.064999967,0
2004/1/1 8:15,28.55227661,1.064999967,0
2004/1/1 8:30,28.41823006,1.060000002,0
2004/1/1 8:45,26.59517479,0.992000013,0
2004/1/1 9:00,26.3538866,0.98299998,0
2004/1/1 9:15,22.81501389,0.85100001,0
2004/1/1 9:30,25.63002634,0.956,0
2004/1/1 9:45,28.55227661,1.064999967,0
2004/1/1 10:00,28.55227661,1.064999967,0
2004/1/1 10:15,28.55227661,1.064999967,0
2004/1/1 10:30,28.55227661,1.064999967,0
2004/1/1 10:45,28.55227661,1.064999967,0
2004/1/1 11:00,28.41823101,1.060000002,0
2004/1/1 11:15,28.09651279,1.047999978,0
2004/1/1 11:30,28.31099033,1.055999964,0
2004/1/1 11:45,27.02412796,1.007999987,0
2004/1/1 12:00,26.27345753,0.979999989,0
2004/1/1 12:15,25.97855282,0.969000011,0
2004/1/1 12:30,19.19571019,0.71599999,0
2004/1/1 12:45,0,0,0
2004/1/1 13:00,0,0,0
2004/1/1 13:15,0,0,0
2004/1/1 13:30,0,0,0
2004/1/1 13:45,0,0,0
2004/1/1 14:00,0,0,0
2004/1/1 14:15,0,0,0
2004/1/1 14:30,0,0,0
2004/1/1 14:45,0,0,0
2004/1/1 15:00,0,0,0
2004/1/1 15:15,0,0,0
2004/1/1 15:30,0,0,0
2004/1/1 15:45,0,0,0
2004/1/1 16:00,0,0,0
2004/1/1 16:15,0,0,0
2004/1/1 16:30,0,0,0
2004/1/1 16:45,0,0,0
2004/1/1 17:00,0,0,0
2004/1/1 17:15,0,0,0
2004/1/1 17:30,0,0,0
2004/1/1 17:45,0,0,0
2004/1/1 18:00,0,0,0
2004/1/1 18:15,0,0,0
2004/1/1 18:30,0,0,0
2004/1/1 18:45,0,0,0
2004/1/1 19:00,0,0,0
2004/1/1 19:15,0,0,0
2004/1/1 19:30,0,0,0
2004/1/1 19:45,0,0,0
2004/1/1 20:00,0,0,0
2004/1/1 20:15,0,0,0
2004/1/1 20:30,0,0,0
2004/1/1 20:45,0,0,0
2004/1/1 21:00,0,0,0
2004/1/1 21:15,0,0,0
2004/1/1 21:30,0,0,0
2004/1/1 21:45,0,0,0
2004/1/1 22:00,0,0,0
2004/1/1 22:15,0,0,0
2004/1/1 22:30,0,0,0
2004/1/1 22:45,0,0,0
2004/1/1 23:00,0,0,0
2004/1/1 23:15,0,0,0
2004/1/1 23:30,0,0,0
2004/1/1 23:45,0,0,0
2004/1/2 0:00,0,0,0
2004/1/2 0:15,0,0,0
2004/1/2 0:30,0,0,0
2004/1/2 0:45,0,0,0
2004/1/2 1:00,0,0,0
2004/1/2 1:15,0,0,0
2004/1/2 1:30,0,0,0
2004/1/2 1:45,0,0,0
2004/1/2 2:00,0,0,0
2004/1/2 2:15,0,0,0
2004/1/2 2:30,0,0,0
2004/1/2 2:45,0,0,0
2004/1/2 3:00,0,0,0
2004/1/2 3:15,0,0,0
2004/1/2 3:30,0,0,0
2004/1/2 3:45,0,0,0
2004/1/2 4:00,0,0,0
2004/1/2 4:15,0,0,0
2004/1/2 4:30,0,0,0
2004/1/2 4:45,0,0,0
2004/1/2 5:00,0,0,0
2004/1/2 5:15,0,0,0
2004/1/2 5:30,0,0,0
2004/1/2 5:45,0,0,0
2004/1/2 6:00,0,0,0
2004/1/2 6:15,0,0,0
2004/1/2 6:30,0,0,0
2004/1/2 6:45,0,0,0
2004/1/2 7:00,0,0,0
2004/1/2 7:15,0,0,0
2004/1/2 7:30,0,0,0
2004/1/2 7:45,0,0,0
2004/1/2 8:00,0,0,0
2004/1/2 8:15,0,0,0
2004/1/2 8:30,0,0,0
2004/1/2 8:45,0,0,0
2004/1/2 9:00,0,0,0
2004/1/2 9:15,0,0,0
2004/1/2 9:30,0,0,0
2004/1/2 9:45,0,0,0
2004/1/2 10:00,0,0,0
2004/1/2 10:15,8.042895198,0.299999994,0
2004/1/2 10:30,9.490616798,0.354000002,0
2004/1/2 10:45,0,0,0
2004/1/2 11:00,0,0,0
2004/1/2 11:15,0,0,0
2004/1/2 11:30,0,0,0
2004/1/2 11:45,0,0,0
2004/1/2 12:00,0,0,0
2004/1/2 12:15,0,0,0
2004/1/2 12:30,0,0,0
2004/1/2 12:45,0,0,0
2004/1/2 13:00,0,0,0
2004/1/2 13:15,0,0,0
2004/1/2 13:30,0,0,0
2004/1/2 13:45,0,0,0
2004/1/2 14:00,0,0,0
2004/1/2 14:15,0,0,0
2004/1/2 14:30,0,0,0
2004/1/2 14:45,0,0,0
2004/1/2 15:00,0,0,0
2004/1/2 15:15,0,0,0
2004/1/2 15:30,0,0,0
2004/1/2 15:45,0,0,0
2004/1/2 16:00,0,0,0
2004/1/2 16:15,0,0,0
2004/1/2 16:30,0,0,0
2004/1/2 16:45,1.849865913,0.068999998,0
2004/1/2 17:00,22.70777512,0.847000003,0
2004/1/2 17:15,15.25469208,0.569000006,0
2004/1/2 17:30,12.5469172,0.467999995,0
2004/1/2 17:45,9.383378028,0.350000001,0
2004/1/2 18:00,7.426273227,0.276999995,0
2004/1/2 18:15,5.978552342,0.222999998,0
2004/1/2 18:30,7.426273465,0.276999996,0
2004/1/2 18:45,6.219839335,0.232000001,0
2004/1/2 19:00,7.694369912,0.287,0
2004/1/2 19:15,9.571045637,0.357000001,0
2004/1/2 19:30,7.962466717,0.297000006,0
2004/1/2 19:45,10.4289546,0.388999999,0
2004/1/2 20:00,0,0,0
2004/1/2 20:15,0,0,0
2004/1/2 20:30,6.916890145,0.258000007,0
2004/1/2 20:45,17.72117901,0.660999983,0
2004/1/2 21:00,16.83646059,0.627999991,0
2004/1/2 21:15,13.72654152,0.51200001,0
2004/1/2 21:30,10.56300259,0.393999994,0
2004/1/2 21:45,6.541554928,0.243999995,0
2004/1/2 22:00,16.30026841,0.60800001,0
2004/1/2 22:15,9.356568337,0.348999992,0
2004/1/2 22:30,13.24396801,0.494000002,0
2004/1/2 22:45,8.310991764,0.309999994,0
2004/1/2 23:00,11.58176947,0.431999997,0
2004/1/2 23:15,17.37265444,0.647999995,0
2004/1/2 23:30,21.07238531,0.785999983,0
2004/1/2 23:45,17.53351212,0.653999999,0
2004/1/3 0:00,14.85254669,0.55399999,0
2004/1/3 0:15,16.1394105,0.601999999,0
2004/1/3 0:30,19.27613926,0.718999997,0
2004/1/3 0:45,12.89544249,0.481000006,0
2004/1/3 1:00,16.4879365,0.615000025,0
2004/1/3 1:15,0,0,0
2004/1/3 1:30,0,0,0
2004/1/3 1:45,0,0,0
2004/1/3 2:00,0,0,0
2004/1/3 2:15,0,0,0
2004/1/3 2:30,0,0,0
2004/1/3 2:45,0,0,0
2004/1/3 3:00,0,0,0
2004/1/3 3:15,0,0,0
2004/1/3 3:30,0,0,0
2004/1/3 3:45,0,0,0
2004/1/3 4:00,0,0,0
2004/1/3 4:15,0,0,0
2004/1/3 4:30,0,0,0
2004/1/3 4:45,0,0,0
2004/1/3 5:00,0,0,0
2004/1/3 5:15,0,0,0
2004/1/3 5:30,0,0,0
2004/1/3 5:45,0,0,0
2004/1/3 6:00,0,0,0
2004/1/3 6:15,0,0,0
2004/1/3 6:30,0,0,0
2004/1/3 6:45,0,0,0
2004/1/3 7:00,0,0,0
2004/1/3 7:15,0,0,0
2004/1/3 7:30,26.6219821,0.99299997,0
2004/1/3 7:45,26.78284264,0.999000013,0
2004/1/3 8:00,23.51206398,0.876999974,0
2004/1/3 8:15,22.17158222,0.826999992,0
2004/1/3 8:30,21.68900871,0.809000015,0
2004/1/3 8:45,23.13672829,0.862999991,0
2004/1/3 9:00,28.52546787,1.06399998,0
2004/1/3 9:15,26.80965233,1,0
2004/1/3 9:30,22.52010679,0.839999989,0
2004/1/3 9:45,16.54155493,0.616999999,0
2004/1/3 10:00,16.48793602,0.61500001,0
2004/1/3 10:15,0,0,0
2004/1/3 10:30,0,0,0
2004/1/3 10:45,0,0,0
2004/1/3 11:00,0,0,0
2004/1/3 11:15,0,0,0
2004/1/3 11:30,0,0,0
2004/1/3 11:45,0,0,0
2004/1/3 12:00,0,0,0
2004/1/3 12:15,0,0,0
2004/1/3 12:30,0,0,0
2004/1/3 12:45,0,0,0
2004/1/3 13:00,0,0,0
2004/1/3 13:15,0,0,0
2004/1/3 13:30,0,0,0
2004/1/3 13:45,0,0,0
2004/1/3 14:00,0,0,0
2004/1/3 14:15,0,0,0
2004/1/3 14:30,0,0,0
2004/1/3 14:45,0,0,0
2004/1/3 15:00,0,0,0
2004/1/3 15:15,0,0,0
2004/1/3 15:30,0,0,0
2004/1/3 15:45,0,0,0
2004/1/3 16:00,0,0,0
2004/1/3 16:15,0,0,0
2004/1/3 16:30,0,0,0
2004/1/3 16:45,0,0,0
2004/1/3 17:00,0,0,0
2004/1/3 17:15,0,0,0
2004/1/3 17:30,0,0,0
2004/1/3 17:45,0,0,0
2004/1/3 18:00,0,0,0
2004/1/3 18:15,12.06434298,0.449999988,0
2004/1/3 18:30,17.21179581,0.641999989,0
2004/1/3 18:45,13.24396777,0.493999995,0
2004/1/3 19:00,14.15549612,0.527999997,0
2004/1/3 19:15,12.57372665,0.468999997,0
2004/1/3 19:30,14.10187626,0.525999993,0
2004/1/3 19:45,11.47453046,0.427999989,0
2004/1/3 20:00,14.3163538,0.533999994,0
2004/1/3 20:15,12.25201058,0.457000002,0
2004/1/3 20:30,12.52010679,0.466999985,0
2004/1/3 20:45,13.35120654,0.498000003,0
2004/1/3 21:00,16.1394105,0.601999999,0
2004/1/3 21:15,9.463806868,0.353,0
2004/1/3 21:30,9.517426014,0.354999989,0
2004/1/3 21:45,17.47989225,0.651999995,0
2004/1/3 22:00,17.72117996,0.661000013,0
2004/1/3 22:15,15.20107269,0.567000002,0
2004/1/3 22:30,15.0938344,0.563000009,0
2004/1/3 22:45,17.29222488,0.644999996,0
2004/1/3 23:00,16.56836462,0.618000001,0
2004/1/3 23:15,17.23860598,0.643000007,0
2004/1/3 23:30,16.40750647,0.612000003,0
2004/1/3 23:45,11.60857916,0.432999999,0
2004/1/4 0:00,11.68900824,0.436000005,0
2004/1/4 0:15,13.88740015,0.518000007,0
2004/1/4 0:30,10.05361939,0.375,0
2004/1/4 0:45,0,0,0
2004/1/4 1:00,0,0,0
2004/1/4 1:15,0,0,0
2004/1/4 1:30,0,0,0
2004/1/4 1:45,0,0,0
2004/1/4 2:00,0,0,0
2004/1/4 2:15,0,0,0
2004/1/4 2:30,0,0,0
2004/1/4 2:45,0,0,0
2004/1/4 3:00,0,0,0
2004/1/4 3:15,0,0,0
2004/1/4 3:30,0,0,0
2004/1/4 3:45,0,0,0
2004/1/4 4:00,0,0,0
2004/1/4 4:15,0,0,0
2004/1/4 4:30,0,0,0
2004/1/4 4:45,0,0,0
2004/1/4 5:00,0,0,0
2004/1/4 5:15,0,0,0
2004/1/4 5:30,0,0,0
2004/1/4 5:45,0,0,0
2004/1/4 6:00,0,0,0
2004/1/4 6:15,0,0,0
2004/1/4 6:30,0,0,0
2004/1/4 6:45,0,0,0
2004/1/4 7:00,0,0,0
2004/1/4 7:15,0,0,0
2004/1/4 7:30,7.721179485,0.287999988,0
2004/1/4 7:45,28.55227661,1.064999967,0
2004/1/4 8:00,27.31903362,1.018999964,0
2004/1/4 8:15,22.84182263,0.851999983,0
2004/1/4 8:30,23.16353941,0.864000022,0
2004/1/4 8:45,26.86326933,1.001999974,0
2004/1/4 9:00,28.55227661,1.064999967,0
2004/1/4 9:15,28.4182291,1.059999972,0
2004/1/4 9:30,27.18498516,1.013999969,0
2004/1/4 9:45,18.49865961,0.689999998,0
2004/1/4 10:00,27.7479887,1.034999996,0
2004/1/4 10:15,0,0,0
2004/1/4 10:30,0,0,0
2004/1/4 10:45,0,0,0
2004/1/4 11:00,0,0,0
2004/1/4 11:15,0,0,0
2004/1/4 11:30,0,0,0
2004/1/4 11:45,0,0,0
2004/1/4 12:00,0,0,0
2004/1/4 12:15,0,0,0
2004/1/4 12:30,0,0,0
2004/1/4 12:45,0,0,0
2004/1/4 13:00,0,0,0
2004/1/4 13:15,0,0,0
2004/1/4 13:30,0,0,0
2004/1/4 13:45,0,0,0
2004/1/4 14:00,0,0,0
2004/1/4 14:15,0,0,0
2004/1/4 14:30,0,0,0
2004/1/4 14:45,0,0,0
2004/1/4 15:00,0,0,0
2004/1/4 15:15,0,0,0
2004/1/4 15:30,0,0,0
2004/1/4 15:45,0,0,0
2004/1/4 16:00,0,0,0
2004/1/4 16:15,0,0,0
2004/1/4 16:30,0,0,0
2004/1/4 16:45,0,0,0
2004/1/4 17:00,0,0,0
2004/1/4 17:15,0,0,0
2004/1/4 17:30,0,0,0
2004/1/4 17:45,0,0,0
2004/1/4 18:00,0,0,0
2004/1/4 18:15,0,0,0
2004/1/4 18:30,0,0,0
2004/1/4 18:45,0,0,0
2004/1/4 19:00,0,0,0
2004/1/4 19:15,3.860589743,0.143999994,0
2004/1/4 19:30,28.55227661,1.064999967,0
2004/1/4 19:45,28.55227661,1.064999967,0
2004/1/4 20:00,27.58713055,1.028999985,0
2004/1/4 20:15,26.75603199,0.997999995,0
2004/1/4 20:30,25.17426348,0.93900001,0
2004/1/4 20:45,25.89812469,0.96600002,0
2004/1/4 21:00,23.21715784,0.865999996,0
2004/1/4 21:15,23.40482616,0.872999996,0
2004/1/4 21:30,21.79624653,0.812999993,0
2004/1/4 21:45,20.10723925,0.750000014,0
2004/1/4 22:00,18.44503975,0.687999994,0
2004/1/4 22:15,16.40750694,0.612000003,0
2004/1/4 22:30,0,0,0
2004/1/4 22:45,0,0,0
2004/1/4 23:00,0,0,0
2004/1/4 23:15,20.72385919,0.772999979,0
2004/1/4 23:30,28.41823006,1.060000002,0
2004/1/4 23:45,19.89276028,0.741999983,0
2004/1/5 0:00,0,0,0
2004/1/5 0:15,0,0,0
2004/1/5 0:30,0,0,0
2004/1/5 0:45,0,0,0
2004/1/5 1:00,0,0,0
2004/1/5 1:15,0,0,0
2004/1/5 1:30,0,0,0
2004/1/5 1:45,0,0,0
2004/1/5 2:00,0,0,0
2004/1/5 2:15,0,0,0
2004/1/5 2:30,0,0,0
2004/1/5 2:45,0,0,0
2004/1/5 3:00,0,0,0
2004/1/5 3:15,0,0,0
2004/1/5 3:30,0,0,0
2004/1/5 3:45,0,0,0
2004/1/5 4:00,0,0,0
2004/1/5 4:15,0,0,0
2004/1/5 4:30,0,0,0
2004/1/5 4:45,0,0,0
2004/1/5 5:00,0,0,0
2004/1/5 5:15,0,0,0
2004/1/5 5:30,0,0,0
2004/1/5 5:45,0,0,0
2004/1/5 6:00,0,0,0
2004/1/5 6:15,0,0,0
2004/1/5 6:30,0,0,0
2004/1/5 6:45,0,0,0
2004/1/5 7:00,6.032171249,0.224999994,0
2004/1/5 7:15,28.55227661,1.064999967,0
2004/1/5 7:30,28.55227661,1.064999967,0
2004/1/5 7:45,28.55227661,1.064999967,0
2004/1/5 8:00,11.07238579,0.412999988,0
2004/1/5 8:15,0,0,0
2004/1/5 8:30,0,0,0
2004/1/5 8:45,0,0,0
2004/1/5 9:00,0,0,0
2004/1/5 9:15,0,0,0
2004/1/5 9:30,0,0,0
2004/1/5 9:45,0,0,0
2004/1/5 10:00,0,0,0
2004/1/5 10:15,0,0,0
2004/1/5 10:30,0,0,0
2004/1/5 10:45,0,0,0
2004/1/5 11:00,0,0,0
2004/1/5 11:15,0,0,0
2004/1/5 11:30,0,0,0
2004/1/5 11:45,0,0,0
2004/1/5 12:00,0,0,0
2004/1/5 12:15,0,0,0
2004/1/5 12:30,0,0,0
2004/1/5 12:45,0,0,0
2004/1/5 13:00,0,0,0
2004/1/5 13:15,0,0,0
2004/1/5 13:30,0,0,0
2004/1/5 13:45,0,0,0
2004/1/5 14:00,0,0,0
2004/1/5 14:15,0,0,0
2004/1/5 14:30,0,0,0
2004/1/5 14:45,0,0,0
2004/1/5 15:00,0,0,0
2004/1/5 15:15,0,0,0
2004/1/5 15:30,0,0,0
2004/1/5 15:45,0,0,0
2004/1/5 16:00,0,0,0
2004/1/5 16:15,0,0,0
2004/1/5 16:30,0,0,0
2004/1/5 16:45,0,0,0
2004/1/5 17:00,0,0,0
2004/1/5 17:15,0,0,0
2004/1/5 17:30,0,0,0
2004/1/5 17:45,0,0,0
2004/1/5 18:00,0,0,0
2004/1/5 18:15,0,0,0
2004/1/5 18:30,0,0,0
2004/1/5 18:45,0,0,0
2004/1/5 19:00,0,0,0
2004/1/5 19:15,0,0,0
2004/1/5 19:30,0,0,0
2004/1/5 19:45,0,0,0
2004/1/5 20:00,0,0,0
2004/1/5 20:15,0,0,0
2004/1/5 20:30,0,0,0
2004/1/5 20:45,0,0,0
2004/1/5 21:00,0,0,0
2004/1/5 21:15,0,0,0
2004/1/5 21:30,0,0,0
2004/1/5 21:45,0,0,0
2004/1/5 22:00,0,0,0
2004/1/5 22:15,0,0,0
2004/1/5 22:30,0,0,0
2004/1/5 22:45,0,0,0
2004/1/5 23:00,0,0,0
2004/1/5 23:15,0,0,0
2004/1/5 23:30,0,0,0
2004/1/5 23:45,0,0,0
2004/1/6 0:00,0,0,0
2004/1/6 0:15,0,0,0
2004/1/6 0:30,0,0,0
2004/1/6 0:45,0,0,0
2004/1/6 1:00,0,0,0
2004/1/6 1:15,0,0,0
2004/1/6 1:30,0,0,0
2004/1/6 1:45,0,0,0
2004/1/6 2:00,0,0,0
2004/1/6 2:15,0,0,0
2004/1/6 2:30,0,0,0
2004/1/6 2:45,0,0,0
2004/1/6 3:00,0,0,0
2004/1/6 3:15,0,0,0
2004/1/6 3:30,0,0,0
2004/1/6 3:45,0,0,0
2004/1/6 4:00,0,0,0
2004/1/6 4:15,0,0,0
2004/1/6 4:30,0,0,0
2004/1/6 4:45,0,0,0
2004/1/6 5:00,0,0,0
2004/1/6 5:15,0,0,0
2004/1/6 5:30,0,0,0
2004/1/6 5:45,0,0,0
2004/1/6 6:00,0,0,0
2004/1/6 6:15,0,0,0
2004/1/6 6:30,14.0482564,0.523999989,0
2004/1/6 6:45,28.55227661,1.064999967,0
2004/1/6 7:00,28.55227661,1.064999967,0
2004/1/6 7:15,29.62466335,1.104999989,0
2004/1/6 7:30,0,0,0
2004/1/6 7:45,0,0,0
2004/1/6 8:00,0,0,0
2004/1/6 8:15,0,0,0
2004/1/6 8:30,0,0,0
2004/1/6 8:45,0,0,0
2004/1/6 9:00,0,0,0
2004/1/6 9:15,0,0,0
2004/1/6 9:30,0,0,0
2004/1/6 9:45,0,0,0
2004/1/6 10:00,0,0,0
2004/1/6 10:15,0,0,0
2004/1/6 10:30,0,0,0
2004/1/6 10:45,0,0,0
2004/1/6 11:00,0,0,0
2004/1/6 11:15,0,0,0
2004/1/6 11:30,0,0,0
2004/1/6 11:45,0,0,0
2004/1/6 12:00,0,0,0
2004/1/6 12:15,0,0,0
2004/1/6 12:30,0,0,0
2004/1/6 12:45,0,0,0
2004/1/6 13:00,0,0,0
2004/1/6 13:15,0,0,0
2004/1/6 13:30,0,0,0
2004/1/6 13:45,0,0,0
2004/1/6 14:00,0,0,0
2004/1/6 14:15,0,0,0
2004/1/6 14:30,0,0,0
2004/1/6 14:45,0,0,0
2004/1/6 15:00,0,0,0
2004/1/6 15:15,0,0,0
2004/1/6 15:30,0,0,0
2004/1/6 15:45,0,0,0
2004/1/6 16:00,0,0,0
2004/1/6 16:15,0,0,0
2004/1/6 16:30,0,0,0
2004/1/6 16:45,0,0,0
2004/1/6 17:00,0,0,0
2004/1/6 17:15,0,0,0
2004/1/6 17:30,0,0,0
2004/1/6 17:45,0,0,0
2004/1/6 18:00,0,0,0
2004/1/6 18:15,0,0,0
2004/1/6 18:30,0,0,0
2004/1/6 18:45,0,0,0
2004/1/6 19:00,0,0,0
2004/1/6 19:15,0,0,0
2004/1/6 19:30,7.184986591,0.268000007,0
2004/1/6 19:45,28.55227661,1.064999967,0
2004/1/6 20:00,28.55227661,1.064999967,0
2004/1/6 20:15,28.55227661,1.064999967,0
2004/1/6 20:30,28.55227661,1.064999967,0
2004/1/6 20:45,28.55227661,1.064999967,0
2004/1/6 21:00,28.52546787,1.06399998,0
2004/1/6 21:15,28.4182291,1.059999972,0
2004/1/6 21:30,28.17694283,1.050999999,0
2004/1/6 21:45,27.53351021,1.02699998,0
2004/1/6 22:00,26.78284264,0.999000013,0
2004/1/6 22:15,26.11260128,0.974000006,0
2004/1/6 22:30,20.05361939,0.747999996,0
2004/1/6 22:45,0,0,0
2004/1/6 23:00,0,0,0
2004/1/6 23:15,13.67292166,0.50999999,0
2004/1/6 23:30,28.55227661,1.064999967,0
2004/1/6 23:45,28.55227661,1.064999967,0
2004/1/7 0:00,32.11796093,1.197999983,0
2004/1/7 0:15,0,0,0
2004/1/7 0:30,0,0,0
2004/1/7 0:45,0,0,0
2004/1/7 1:00,0,0,0
2004/1/7 1:15,0,0,0
2004/1/7 1:30,0,0,0
2004/1/7 1:45,0,0,0
2004/1/7 2:00,0,0,0
2004/1/7 2:15,0,0,0
2004/1/7 2:30,0,0,0
2004/1/7 2:45,0,0,0
2004/1/7 3:00,0,0,0
2004/1/7 3:15,0,0,0
2004/1/7 3:30,0,0,0
2004/1/7 3:45,0,0,0
2004/1/7 4:00,0,0,0
2004/1/7 4:15,0,0,0
2004/1/7 4:30,0,0,0
2004/1/7 4:45,0,0,0
2004/1/7 5:00,0,0,0
2004/1/7 5:15,0,0,0
2004/1/7 5:30,0,0,0
2004/1/7 5:45,0,0,0
2004/1/7 6:00,0,0,0
2004/1/7 6:15,0,0,0
2004/1/7 6:30,2.010723829,0.075000003,0
2004/1/7 6:45,28.55227661,1.064999967,0
2004/1/7 7:00,28.55227661,1.064999967,0
2004/1/7 7:15,31.44771957,1.172999978,0
2004/1/7 7:30,0,0,0
2004/1/7 7:45,0,0,0
2004/1/7 8:00,0,0,0
2004/1/7 8:15,0,0,0
2004/1/7 8:30,0,0,0
2004/1/7 8:45,0,0,0
2004/1/7 9:00,0.107238613,0.004,0
2004/1/7 9:15,26.78284073,0.998999983,0
2004/1/7 9:30,0,0,0
2004/1/7 9:45,0,0,0
2004/1/7 10:00,0,0,0
2004/1/7 10:15,0,0,0
2004/1/7 10:30,0,0,0
2004/1/7 10:45,0,0,0
2004/1/7 11:00,0,0,0
2004/1/7 11:15,0,0,0
2004/1/7 11:30,0,0,0
2004/1/7 11:45,0,0,0
2004/1/7 12:00,0,0,0
2004/1/7 12:15,0,0,0
2004/1/7 12:30,0,0,0
2004/1/7 12:45,0,0,0
2004/1/7 13:00,0,0,0
2004/1/7 13:15,0,0,0
2004/1/7 13:30,0,0,0
2004/1/7 13:45,0,0,0
2004/1/7 14:00,0,0,0
2004/1/7 14:15,0,0,0
2004/1/7 14:30,0,0,0
2004/1/7 14:45,0,0,0
2004/1/7 15:00,0,0,0
2004/1/7 15:15,0,0,0
2004/1/7 15:30,0,0,0
2004/1/7 15:45,0,0,0
2004/1/7 16:00,0,0,0
2004/1/7 16:15,0,0,0
2004/1/7 16:30,0,0,0
2004/1/7 16:45,0,0,0
2004/1/7 17:00,0,0,0
2004/1/7 17:15,0,0,0
2004/1/7 17:30,0,0,0
2004/1/7 17:45,16.08579016,0.599999994,0
2004/1/7 18:00,28.55227661,1.064999967,0
2004/1/7 18:15,28.55227661,1.064999967,0
2004/1/7 18:30,28.55227661,1.064999967,0
2004/1/7 18:45,28.55227661,1.064999967,0
2004/1/7 19:00,28.55227661,1.064999967,0
2004/1/7 19:15,28.55227661,1.064999967,0
2004/1/7 19:30,28.55227661,1.064999967,0
2004/1/7 19:45,28.28418064,1.054999977,0
2004/1/7 20:00,28.55227661,1.064999967,0
2004/1/7 20:15,27.93565464,1.041999965,0
2004/1/7 20:30,28.55227661,1.064999967,0
2004/1/7 20:45,12.14477253,0.453000009,0
2004/1/7 21:00,18.23056221,0.679999977,0
2004/1/7 21:15,28.55227661,1.064999967,0
2004/1/7 21:30,26.89008045,1.002999991,0
2004/1/7 21:45,26.80965138,0.999999999,0
2004/1/7 22:00,25.14745283,0.937999994,0
2004/1/7 22:15,26.86327076,1.002000003,0
2004/1/7 22:30,26.13940907,0.974999994,0
2004/1/7 22:45,27.23860645,1.016000003,0
2004/1/7 23:00,25.73726368,0.959999979,0
2004/1/7 23:15,26.62198448,0.993,0
2004/1/7 23:30,25.57640743,0.953999995,0
2004/1/7 23:45,26.62198448,0.993,0
2004/1/8 0:00,11.68900776,0.43599999,0
2004/1/8 0:15,0,0,0
2004/1/8 0:30,0,0,0
2004/1/8 0:45,0,0,0
2004/1/8 1:00,0,0,0
2004/1/8 1:15,0,0,0
2004/1/8 1:30,0,0,0
2004/1/8 1:45,0,0,0
2004/1/8 2:00,0,0,0
2004/1/8 2:15,0,0,0
2004/1/8 2:30,0,0,0
2004/1/8 2:45,0,0,0
2004/1/8 3:00,0,0,0
2004/1/8 3:15,0,0,0
2004/1/8 3:30,0,0,0
2004/1/8 3:45,0,0,0
2004/1/8 4:00,0,0,0
2004/1/8 4:15,0,0,0
2004/1/8 4:30,0,0,0
2004/1/8 4:45,0,0,0
2004/1/8 5:00,0,0,0
2004/1/8 5:15,0,0,0
2004/1/8 5:30,0,0,0
2004/1/8 5:45,0,0,0
2004/1/8 6:00,0,0,0
2004/1/8 6:15,0,0,0
2004/1/8 6:30,12.76139331,0.475999988,0
2004/1/8 6:45,28.55227661,1.064999967,0
2004/1/8 7:00,28.55227661,1.064999967,0
2004/1/8 7:15,30.56300163,1.139999985,0
2004/1/8 7:30,0,0,0
2004/1/8 7:45,0,0,0
2004/1/8 8:00,0,0,0
2004/1/8 8:15,0,0,0
2004/1/8 8:30,0,0,0
2004/1/8 8:45,0,0,0
2004/1/8 9:00,0,0,0
2004/1/8 9:15,0,0,0
2004/1/8 9:30,0,0,0
2004/1/8 9:45,0,0,0
2004/1/8 10:00,0,0,0
2004/1/8 10:15,0,0,0
2004/1/8 10:30,0,0,0
2004/1/8 10:45,0,0,0
2004/1/8 11:00,0,0,0
2004/1/8 11:15,0,0,0
2004/1/8 11:30,0,0,0
2004/1/8 11:45,0,0,0
2004/1/8 12:00,0,0,0
2004/1/8 12:15,0,0,0
2004/1/8 12:30,0,0,0
2004/1/8 12:45,0,0,0
2004/1/8 13:00,0,0,0
2004/1/8 13:15,0,0,0
2004/1/8 13:30,0,0,0
2004/1/8 13:45,0,0,0
2004/1/8 14:00,0,0,0
2004/1/8 14:15,0,0,0
2004/1/8 14:30,0,0,0
2004/1/8 14:45,0,0,0
2004/1/8 15:00,0,0,0
2004/1/8 15:15,0,0,0
2004/1/8 15:30,0,0,0
2004/1/8 15:45,0,0,0
2004/1/8 16:00,0,0,0
2004/1/8 16:15,0,0,0
2004/1/8 16:30,0,0,0
2004/1/8 16:45,0,0,0
2004/1/8 17:00,0,0,0
2004/1/8 17:15,0,0,0
2004/1/8 17:30,0,0,0
2004/1/8 17:45,0,0,0
2004/1/8 18:00,0,0,0
2004/1/8 18:15,15.84450388,0.591000005,0
2004/1/8 18:30,24.74530697,0.922999978,0
2004/1/8 18:45,28.55227661,1.064999967,0
2004/1/8 19:00,28.55227661,1.064999967,0
2004/1/8 19:15,28.55227661,1.064999967,0
2004/1/8 19:30,28.55227661,1.064999967,0
2004/1/8 19:45,28.55227661,1.064999967,0
2004/1/8 20:00,28.55227661,1.064999967,0
2004/1/8 20:15,28.15013313,1.049999982,0
2004/1/8 20:30,26.83646011,1.000999988,0
2004/1/8 20:45,26.8900795,1.00299999,0
2004/1/8 21:00,25.57640696,0.953999996,0
2004/1/8 21:15,26.9168911,1.004000008,0
2004/1/8 21:30,25.04021406,0.933999985,0
2004/1/8 21:45,26.59517479,0.992000013,0
2004/1/8 22:00,23.7801609,0.886999994,0
2004/1/8 22:15,23.3512063,0.870999992,0
2004/1/8 22:30,22.14477205,0.826000005,0
2004/1/8 22:45,22.25201035,0.829999983,0
2004/1/8 23:00,23.4316349,0.873999983,0
2004/1/8 23:15,22.11796188,0.824999989,0
2004/1/8 23:30,21.71581697,0.809999988,0
2004/1/8 23:45,21.87667608,0.816000014,0
2004/1/9 0:00,6.997319221,0.261000007,0
2004/1/9 0:15,0,0,0
2004/1/9 0:30,0,0,0
2004/1/9 0:45,0,0,0
2004/1/9 1:00,0,0,0
2004/1/9 1:15,0,0,0
2004/1/9 1:30,0,0,0
2004/1/9 1:45,0,0,0
2004/1/9 2:00,0,0,0
2004/1/9 2:15,0,0,0
2004/1/9 2:30,0,0,0
2004/1/9 2:45,0,0,0
2004/1/9 3:00,0,0,0
2004/1/9 3:15,0,0,0
2004/1/9 3:30,0,0,0
2004/1/9 3:45,0,0,0
2004/1/9 4:00,0,0,0
2004/1/9 4:15,0,0,0
2004/1/9 4:30,0,0,0
2004/1/9 4:45,0,0,0
2004/1/9 5:00,0,0,0
2004/1/9 5:15,0,0,0
2004/1/9 5:30,0,0,0
2004/1/9 5:45,0,0,0
2004/1/9 6:00,0,0,0
2004/1/9 6:15,0,0,0
2004/1/9 6:30,0,0,0
2004/1/9 6:45,0,0,0
2004/1/9 7:00,0,0,0
2004/1/9 7:15,0,0,0
2004/1/9 7:30,22.0107224,0.820999979,0
2004/1/9 7:45,30.21447563,1.126999974,0
2004/1/9 8:00,0,0,0
2004/1/9 8:15,0,0,0
2004/1/9 8:30,0,0,0
2004/1/9 8:45,0,0,0
2004/1/9 9:00,0,0,0
2004/1/9 9:15,0,0,0
2004/1/9 9:30,0,0,0
2004/1/9 9:45,0,0,0
2004/1/9 10:00,0,0,0
2004/1/9 10:15,0,0,0
2004/1/9 10:30,0,0,0
2004/1/9 10:45,0,0,0
2004/1/9 11:00,0,0,0
2004/1/9 11:15,0,0,0
2004/1/9 11:30,0,0,0
2004/1/9 11:45,0,0,0
2004/1/9 12:00,0,0,0
2004/1/9 12:15,0,0,0
2004/1/9 12:30,0,0,0
2004/1/9 12:45,0,0,0
2004/1/9 13:00,0,0,0
2004/1/9 13:15,0,0,0
2004/1/9 13:30,0,0,0
2004/1/9 13:45,0,0,0
2004/1/9 14:00,0,0,0
2004/1/9 14:15,0,0,0
2004/1/9 14:30,0,0,0
2004/1/9 14:45,0,0,0
2004/1/9 15:00,0,0,0
2004/1/9 15:15,0,0,0
2004/1/9 15:30,0,0,0
2004/1/9 15:45,0,0,0
2004/1/9 16:00,0,0,0
2004/1/9 16:15,0,0,0
2004/1/9 16:30,0,0,0
2004/1/9 16:45,0,0,0
2004/1/9 17:00,0,0,0
2004/1/9 17:15,0,0,0
2004/1/9 17:30,0,0,0
2004/1/9 17:45,0,0,0
2004/1/9 18:00,0,0,0
2004/1/9 18:15,0,0,0
2004/1/9 18:30,0,0,0
2004/1/9 18:45,0,0,0
2004/1/9 19:00,0,0,0
2004/1/9 19:15,0,0,0
2004/1/9 19:30,0,0,0
2004/1/9 19:45,0,0,0
2004/1/9 20:00,0,0,0
2004/1/9 20:15,0,0,0
2004/1/9 20:30,0,0,0
2004/1/9 20:45,0,0,0
2004/1/9 21:00,0,0,0
2004/1/9 21:15,5.093833923,0.189999998,0
2004/1/9 21:30,28.55227661,1.064999967,0
2004/1/9 21:45,28.55227661,1.064999967,0
2004/1/9 22:00,28.55227661,1.064999967,0
2004/1/9 22:15,28.55227661,1.064999967,0
2004/1/9 22:30,28.55227661,1.064999967,0
2004/1/9 22:45,28.55227661,1.064999967,0
2004/1/9 23:00,28.55227661,1.064999967,0
2004/1/9 23:15,28.55227661,1.064999967,0
2004/1/9 23:30,28.55227661,1.064999967,0
2004/1/9 23:45,28.55227661,1.064999967,0
2004/1/10 0:00,28.55227661,1.064999967,0
2004/1/10 0:15,29.22251892,1.089999973,0
2004/1/10 0:30,4.53083086,0.169,0
2004/1/10 0:45,0,0,0
2004/1/10 1:00,0,0,0
2004/1/10 1:15,0,0,0
2004/1/10 1:30,0,0,0
2004/1/10 1:45,0,0,0
2004/1/10 2:00,0,0,0
2004/1/10 2:15,0,0,0
2004/1/10 2:30,0,0,0
2004/1/10 2:45,0,0,0
2004/1/10 3:00,0,0,0
2004/1/10 3:15,0,0,0
2004/1/10 3:30,0,0,0
2004/1/10 3:45,0,0,0
2004/1/10 4:00,0,0,0
2004/1/10 4:15,0,0,0
2004/1/10 4:30,0,0,0
2004/1/10 4:45,0,0,0
2004/1/10 5:00,0,0,0
2004/1/10 5:15,0,0,0
2004/1/10 5:30,0,0,0
2004/1/10 5:45,0,0,0
2004/1/10 6:00,0,0,0
2004/1/10 6:15,0,0,0
2004/1/10 6:30,0,0,0
2004/1/10 6:45,0,0,0
2004/1/10 7:00,11.01876605,0.410999991,0
2004/1/10 7:15,28.55227661,1.064999967,0
2004/1/10 7:30,28.55227661,1.064999967,0
2004/1/10 7:45,28.55227661,1.064999967,0
2004/1/10 8:00,28.55227661,1.064999967,0
2004/1/10 8:15,28.55227661,1.064999967,0
2004/1/10 8:30,28.55227661,1.064999967,0